Cosmos 1417 Rocket - Orbit

View from above orbital plane
View from above orbital plane
View from above satellite
View from above satellite

Ground track
Ground track

The orbit data is extracted from the following two-line orbital elements,

1 13618U 82102B   13167.81479832  .00000098  00000-0  84659-4 0  2662
2 13618 082.9668 141.5329 0030511 262.5160 152.7386 13.76606240540205
Epoch (UTC): 16 June 2013 19:33:18
Eccentricity: 0.0030511
inclination: 82.9668°
perigee height: 953 km
apogee height: 998 km
right ascension of ascending node: 141.5329°
argument of perigee: 262.5160°
revolutions per day: 13.76606240
mean anomaly at epoch: 152.7386°
orbit number at epoch: 54020

The dashed part of the orbit path shows where the satellite is in the earth's shadow,  

Developed and maintained by Chris Peat, Heavens-Above GmbH. Please read the updated FAQ before sending e-mail. Imprint. DLR